• In Hungary
  • List of Countries
  • For 7 days
  • Water Temperature
  • Satellite Maps
  • Weather Map
  • News
  • Weather Widgets
  • user-avatar
    Login

    Hourly Weather Öskemen

    Today, 19 September, Wednesday

    Time Temperature Precipitation Wind Pressure Humidity
    00:00 +5°C° 0 mm 1 mps 738 mmHg 80%
    01:00 +5°C° 0 mm 1 mps 738 mmHg 79%
    02:00 +5°C° 0 mm 1 mps 738 mmHg 79%
    03:00 +5°C° 0 mm 1 mps 738 mmHg 78%
    04:00 +5°C° 0 mm 1 mps 737 mmHg 77%
    05:00 +5°C° 0 mm 1 mps 737 mmHg 76%
    06:00 +4°C° 0 mm 1 mps 737 mmHg 75%
    07:00 +7°C° 0 mm 1 mps 737 mmHg 65%
    08:00 +9°C° 0 mm 1 mps 737 mmHg 56%
    09:00 +12°C° 0 mm 1 mps 736 mmHg 46%
    10:00 +14°C° 0 mm 1 mps 736 mmHg 40%
    11:00 +16°C° 0 mm 1 mps 735 mmHg 34%
    12:00 +19°C° 0 mm 1 mps 735 mmHg 28%
    13:00 +20°C° 0 mm 1 mps 735 mmHg 27%
    14:00 +20°C° 0 mm 2 mps 734 mmHg 25%
    15:00 +21°C° 0 mm 2 mps 734 mmHg 24%
    16:00 +19°C° 0 mm 2 mps 733 mmHg 29%
    17:00 +17°C° 0 mm 2 mps 733 mmHg 34%
    18:00 +16°C° 0 mm 1 mps 732 mmHg 39%
    19:00 +14°C° 0 mm 2 mps 733 mmHg 40%
    20:00 +13°C° 0 mm 2 mps 733 mmHg 42%
    21:00 +10°C° 0 mm 2 mps 733 mmHg 43%
    22:00 +10°C° 0 mm 2 mps 733 mmHg 43%
    23:00 +9°C° 0 mm 2 mps 733 mmHg 43%

    Tomorrow, 20 September, Thursday

    Time Temperature Precipitation Wind Pressure Humidity
    00:00 +9°C° 0 mm 2 mps 733 mmHg 43%
    01:00 +9°C° 0 mm 2 mps 732 mmHg 42%
    02:00 +9°C° 0 mm 2 mps 732 mmHg 41%
    03:00 +8°C° 0 mm 2 mps 732 mmHg 40%
    04:00 +8°C° 0 mm 2 mps 732 mmHg 39%
    05:00 +8°C° 0 mm 2 mps 732 mmHg 38%
    06:00 +8°C° 0 mm 3 mps 732 mmHg 37%
    07:00 +10°C° 0 mm 3 mps 732 mmHg 34%
    08:00 +13°C° 0 mm 3 mps 732 mmHg 32%
    09:00 +15°C° 0 mm 4 mps 731 mmHg 30%
    10:00 +17°C° 0 mm 5 mps 731 mmHg 27%
    11:00 +20°C° 0 mm 5 mps 731 mmHg 24%
    12:00 +22°C° 0 mm 6 mps 731 mmHg 21%
    13:00 +23°C° 0 mm 6 mps 731 mmHg 21%
    14:00 +23°C° 0 mm 6 mps 730 mmHg 21%
    15:00 +24°C° 0 mm 6 mps 730 mmHg 21%
    16:00 +22°C° 0 mm 5 mps 730 mmHg 25%
    17:00 +21°C° 0 mm 4 mps 730 mmHg 30%
    18:00 +19°C° 0 mm 3 mps 730 mmHg 34%
    19:00 +18°C° 0 mm 3 mps 730 mmHg 32%
    20:00 +17°C° 0 mm 3 mps 730 mmHg 31%
    21:00 +16°C° 0 mm 3 mps 730 mmHg 30%
    22:00 +14°C° 0 mm 3 mps 730 mmHg 30%
    23:00 +14°C° 0 mm 3 mps 730 mmHg 29%

    Day after tomorrow, 21 September, Friday

    Time Temperature Precipitation Wind Pressure Humidity
    00:00 +13°C° 0 mm 3 mps 730 mmHg 29%
    01:00 +14°C° 0 mm 3 mps 730 mmHg 28%
    02:00 +14°C° 0 mm 3 mps 730 mmHg 27%
    03:00 +14°C° 0 mm 3 mps 730 mmHg 26%
    04:00 +14°C° 0 mm 3 mps 731 mmHg 27%
    05:00 +14°C° 0 mm 3 mps 731 mmHg 27%
    06:00 +16°C° 0 mm 3 mps 731 mmHg 28%
    07:00 +17°C° 0 mm 3 mps 731 mmHg 29%
    08:00 +18°C° 0 mm 3 mps 731 mmHg 30%
    09:00 +19°C° 0 mm 3 mps 731 mmHg 31%
    10:00 +20°C° 0 mm 3 mps 731 mmHg 28%
    11:00 +22°C° 0 mm 3 mps 732 mmHg 25%
    12:00 +24°C° 0 mm 3 mps 732 mmHg 22%
    13:00 +23°C° 0 mm 4 mps 732 mmHg 25%
    14:00 +23°C° 0 mm 4 mps 732 mmHg 27%
    15:00 +22°C° 0 mm 4 mps 732 mmHg 30%
    16:00 +20°C° 0.4 mm 3 mps 732 mmHg 42%
    17:00 +18°C° 0.4 mm 3 mps 732 mmHg 55%
    18:00 +16°C° 0.4 mm 2 mps 732 mmHg 67%
    19:00 +15°C° 0.2 mm 2 mps 733 mmHg 70%
    20:00 +15°C° 0.2 mm 2 mps 733 mmHg 73%
    21:00 +14°C° 0.2 mm 2 mps 733 mmHg 75%
    22:00 +14°C° 0 mm 2 mps 733 mmHg 76%
    23:00 +14°C° 0 mm 2 mps 733 mmHg 77%

    22 September, Saturday

    Time Temperature Precipitation Wind Pressure Humidity
    00:00 +14°C° 0 mm 2 mps 733 mmHg 79%
    01:00 +13°C° 0 mm 2 mps 733 mmHg 80%
    02:00 +13°C° 0 mm 2 mps 734 mmHg 81%
    03:00 +12°C° 0 mm 2 mps 734 mmHg 82%
    04:00 +12°C° 0 mm 2 mps 734 mmHg 82%
    05:00 +10°C° 0 mm 2 mps 734 mmHg 82%
    06:00 +10°C° 0 mm 2 mps 734 mmHg 81%
    07:00 +12°C° 0 mm 2 mps 734 mmHg 73%
    08:00 +14°C° 0 mm 2 mps 734 mmHg 65%
    09:00 +16°C° 0 mm 2 mps 734 mmHg 58%
    10:00 +17°C° 0 mm 2 mps 734 mmHg 51%
    11:00 +18°C° 0 mm 3 mps 734 mmHg 44%
    12:00 +19°C° 0 mm 3 mps 734 mmHg 38%
    13:00 +19°C° 0.2 mm 3 mps 733 mmHg 42%
    14:00 +18°C° 0.2 mm 4 mps 733 mmHg 47%
    15:00 +17°C° 0.2 mm 4 mps 733 mmHg 51%
    16:00 +16°C° 0.5 mm 3 mps 733 mmHg 58%
    17:00 +14°C° 0.5 mm 3 mps 733 mmHg 64%
    18:00 +13°C° 0.5 mm 3 mps 733 mmHg 70%
    19:00 +12°C° 0.2 mm 3 mps 733 mmHg 74%
    20:00 +12°C° 0.2 mm 2 mps 733 mmHg 77%
    21:00 +12°C° 0.2 mm 2 mps 733 mmHg 81%
    22:00 +10°C° 0 mm 2 mps 733 mmHg 80%
    23:00 +10°C° 0 mm 2 mps 733 mmHg 80%

    23 September, Sunday

    Time Temperature Precipitation Wind Pressure Humidity
    00:00 +10°C° 0 mm 2 mps 733 mmHg 79%
    01:00 +10°C° 0 mm 2 mps 733 mmHg 79%
    02:00 +10°C° 0 mm 2 mps 733 mmHg 78%
    03:00 +10°C° 0 mm 2 mps 733 mmHg 78%
    04:00 +9°C° 0 mm 2 mps 733 mmHg 78%
    05:00 +9°C° 0 mm 2 mps 733 mmHg 78%
    06:00 +9°C° 0 mm 2 mps 733 mmHg 78%
    07:00 +12°C° 0 mm 2 mps 733 mmHg 72%
    08:00 +14°C° 0 mm 2 mps 733 mmHg 66%
    09:00 +15°C° 0 mm 2 mps 733 mmHg 60%
    10:00 +16°C° 0.1 mm 3 mps 732 mmHg 57%
    11:00 +17°C° 0.1 mm 3 mps 732 mmHg 55%
    12:00 +18°C° 0.1 mm 4 mps 731 mmHg 53%
    13:00 +18°C° 0.3 mm 3 mps 731 mmHg 55%
    14:00 +18°C° 0.3 mm 3 mps 731 mmHg 57%
    15:00 +18°C° 0.3 mm 2 mps 730 mmHg 60%
    16:00 +17°C° 0.1 mm 2 mps 730 mmHg 63%
    17:00 +17°C° 0.1 mm 2 mps 730 mmHg 66%
    18:00 +16°C° 0.1 mm 2 mps 729 mmHg 69%
    19:00 +15°C° 0.2 mm 2 mps 729 mmHg 73%
    20:00 +14°C° 0.2 mm 2 mps 729 mmHg 76%
    21:00 +13°C° 0.2 mm 2 mps 729 mmHg 80%
    22:00 +12°C° 0.3 mm 3 mps 729 mmHg 80%
    23:00 +12°C° 0.3 mm 3 mps 729 mmHg 81%

    24 September, Monday

    Time Temperature Precipitation Wind Pressure Humidity
    00:00 +12°C° 0.3 mm 3 mps 729 mmHg 81%
    01:00 +11°C° 0.1 mm 3 mps 729 mmHg 82%
    02:00 +12°C° 0.1 mm 2 mps 729 mmHg 84%
    03:00 +10°C° 0.1 mm 2 mps 729 mmHg 85%
    04:00 +10°C° 0 mm 2 mps 729 mmHg 85%
    05:00 +10°C° 0 mm 2 mps 729 mmHg 86%
    06:00 +10°C° 0 mm 2 mps 729 mmHg 87%
    07:00 +12°C° 0 mm 2 mps 729 mmHg 81%
    08:00 +13°C° 0 mm 2 mps 729 mmHg 76%
    09:00 +15°C° 0 mm 2 mps 730 mmHg 71%
    10:00 +16°C° 0 mm 3 mps 729 mmHg 62%
    11:00 +17°C° 0 mm 3 mps 729 mmHg 53%
    12:00 +19°C° 0 mm 4 mps 729 mmHg 44%
    13:00 +19°C° 0 mm 4 mps 729 mmHg 42%
    14:00 +19°C° 0 mm 4 mps 729 mmHg 40%
    15:00 +19°C° 0 mm 4 mps 729 mmHg 38%
    16:00 +18°C° 0.1 mm 4 mps 729 mmHg 46%
    17:00 +16°C° 0.1 mm 3 mps 729 mmHg 54%
    18:00 +15°C° 0.1 mm 2 mps 729 mmHg 61%
    19:00 +14°C° 0.5 mm 2 mps 729 mmHg 68%
    20:00 +13°C° 0.5 mm 2 mps 729 mmHg 74%
    21:00 +12°C° 0.5 mm 3 mps 729 mmHg 80%
    22:00 +12°C° 0.4 mm 2 mps 729 mmHg 82%
    23:00 +12°C° 0.4 mm 2 mps 729 mmHg 84%
    Show more